This demonstration page uses our WeatherBlox Daily Observations layout. Learn more.

Left ArrowRight Arrow

Hourly Observations for June 27, 2019

Temp ( °F °C ) Dew Point ( °F °C ) Humidity (%) Winds ( mph kmh ) Pressure ( in mb ) Visibility ( mi km ) Precip ( " mm )
12:51 am 00:51 Clear 81 27.2 38 3.3 21 21 WNW 9 15 29.80 1009 10 16 0.00 0.00
1:51 am 01:51 Clear 78 25.6 38 3.3 24 24 NNW 8 13 29.80 1009 10 16 0.00 0.00
2:51 am 02:51 Clear 78 25.6 38 3.3 24 24 NNW 7 11 29.82 1010 10 16 0.00 0.00
3:51 am 03:51 Clear 78 25.6 38 3.3 24 24 NW 9 15 29.83 1010 10 16 0.00 0.00
4:51 am 04:51 Clear 73 22.8 38 3.3 28 28 WNW 6 9 29.86 1011 10 16 0.00 0.00
5:51 am 05:51 Sunny 69 20.6 37 2.8 31 31 E 6 9 29.89 1012 10 16 0.00 0.00
6:51 am 06:51 Sunny 77 25 38 3.3 24 24 Calm 29.89 1012 10 16 0.00 0.00
7:51 am 07:51 Sunny 82 27.8 37 2.8 20 20 Calm 29.91 1013 10 16 0.00 0.00
8:51 am 08:51 Sunny 85 29.4 36 2.2 17 17 Calm 29.91 1013 10 16 0.00 0.00
9:51 am 09:51 Sunny 89 31.7 36 2.2 15 15 WSW 3 6 29.89 1012 10 16 0.00 0.00
10:51 am 10:51 Sunny 94 34.4 37 2.8 14 14 SE 8 13 29.88 1012 10 16 0.00 0.00
11:51 am 11:51 Sunny 98 36.7 37 2.8 12 12 S 7 11 29.86 1011 10 16 0.00 0.00
12:51 pm 12:51 Sunny 100 37.8 36 2.2 11 11 undefined N/A 29.84 1011 10 16 0.00 0.00
1:51 pm 13:51 Partly Cloudy 101 38.3 37 2.8 11 11 VRB 6 9 29.81 1010 10 16 0.00 0.00
2:51 pm 14:51 Mostly Cloudy 104 40 36 2.2 9 9 VRB 3 6 29.78 1009 10 16 0.00 0.00
3:51 pm 15:51 Cloudy 104 40 37 2.8 10 10 VRB 3 6 29.75 1008 10 16 0.00 0.00
4:51 pm 16:51 Mostly Cloudy 103 39.4 37 2.8 10 10 VRB 6 9 29.74 1007 10 16 0.00 0.00
5:51 pm 17:51 Mostly Cloudy 103 39.4 37 2.8 10 10 W 13 20 29.73 1007 10 16 0.00 0.00
6:51 pm 18:51 Mostly Cloudy 101 38.3 37 2.8 11 11 NW 9 15 29.72 1007 10 16 0.00 0.00
7:51 pm 19:51 Mostly Cloudy 97 36.1 34 1.1 11 11 NW 15 24 29.73 1007 10 16 0.00 0.00
8:51 pm 20:51 Partly Cloudy 93 33.9 33 0.6 12 12 WNW 14 22 29.77 1008 10 16 0.00 0.00
9:51 pm 21:51 Partly Cloudy 91 32.8 33 0.6 13 13 WNW 13 20 29.79 1009 10 16 0.00 0.00
10:51 pm 22:51 Mostly Clear 87 30.6 33 0.6 14 14 W 10 17 29.81 1009 10 16 0.00 0.00
11:51 pm 23:51 Clear 90 32.2 33 0.6 13 13 SW 7 11 29.84 1010 10 16 0.00 0.00

Powered by AerisWeather